Terminal Aerodrome Forecast
Issued by NWS

Current Version | Previous Version | Graphics & Text | Print | Product List | Glossary On
Versions: 1 2 3 4 5 6 7 8 9 10 11 12 13 14 15 16 17 18 19 20
000
FTUS41 KRNK 030330 AAA
TAFLWB
TAF AMD
KLWB 030330Z 0304/0324 31006KT P6SM BKN018 OVC030
     FM030600 00000KT P6SM SCT080
     FM031500 30007KT P6SM BKN090=

USA.gov is the U.S. government's official web portal to all federal, state and local government web resources and services.